[Iaude] MPEC J33: 2024 JH [a=0.97,e=0.11,i=11.7,H=25.6]

mpec at cfa.harvard.edu mpec at cfa.harvard.edu
Fri May 3 03:31:09 EDT 2024


M.P.E.C. 2024-J33                                   Issued 2024 May 3, 07:29 UT

     The Minor Planet Electronic Circulars contain information on unusual
         minor planets, routine data on comets and natural satellites,
         and occasional editorial announcements.  They are published
    on behalf of Division F of the International Astronomical Union by the
          Minor Planet Center, Smithsonian Astrophysical Observatory,
                          Cambridge, MA 02138, U.S.A.
			  
             Prepared using the Tamkin Foundation Computer Network

                              MPC at CFA.HARVARD.EDU
            URL https://www.minorplanetcenter.net/    ISSN 1523-6714

                                    2024 JH                                     


Observations:
     K24J00H 1C2024 04 21.38969 15 11 10.06 +54 47 46.3          20.9 GVEJ033G96
     K24J00H 1C2024 04 21.39551 15 11 01.17 +54 46 41.2          20.7 GVEJ033G96
     K24J00H*KC2024 05 01.07028 12 28 06.610+01 37 29.28         19.3 GVEJ033W16
     K24J00H KC2024 05 01.07337 12 28 04.502+01 36 26.96         19.7 GVEJ033W16
     K24J00H KC2024 05 01.07644 12 28 02.443+01 35 27.56         19.4 GVEJ033W16
     K24J00H KC2024 05 01.07953 12 28 00.314+01 34 26.08         19.4 GVEJ033W16
     K24J00H KC2024 05 01.08244 12 27 58.291+01 33 28.40         19.4 GVEJ033W16
     K24J00H KC2024 05 01.08525 12 27 56.402+01 32 33.07         19.1 GVEJ033W16
     K24J00H mC2024 05 01.30281512 25 34.079+00 21 44.89         19.09GVEJ033I52
     K24J00H mC2024 05 01.30299712 25 33.978+00 21 41.11         19.40GVEJ033I52
     K24J00H mC2024 05 01.30317812 25 33.820+00 21 37.91         19.92GVEJ033I52
     K24J00H mC2024 05 01.30336012 25 33.730+00 21 33.98         18.97GVEJ033I52
     K24J00H KB2024 05 01.94646412 19 34.286-02 59 50.68         19.4 GXEJ033K74
     K24J00H KB2024 05 01.95845812 19 27.017-03 03 27.22         18.9 GXEJ033K74
     K24J00H KC2024 05 02.12999712 18 01.74 -03 53 59.4          20.0 GVEJ033H21
     K24J00H KC2024 05 02.13141812 18 00.86 -03 54 24.5          20.0 GVEJ033H21
     K24J00H KC2024 05 02.14136912 17 54.75 -03 57 20.3          19.9 GVEJ033H21
     K24J00H KC2024 05 02.14440112 17 52.89 -03 58 13.7          19.9 GVEJ033H21
     K24J00H KC2024 05 02.18695712 17 31.00 -04 10 28.5          19.4 GXEJ033858
     K24J00H KC2024 05 02.19154812 17 28.17 -04 11 49.1          19.4 GXEJ033858
     K24J00H KC2024 05 02.19620412 17 25.30 -04 13 10.7          19.5 GXEJ033858
     K24J00H mC2024 05 02.29719612 16 24.697-04 42 19.66         20.39GVEJ033I52
     K24J00H mC2024 05 02.29736612 16 24.625-04 42 23.18         19.62GVEJ033I52
     K24J00H mC2024 05 02.29753612 16 24.514-04 42 25.96         19.55GVEJ033I52
     K24J00H mC2024 05 02.29770512 16 24.413-04 42 28.91         19.32GVEJ033I52
     K24J00H KC2024 05 02.75447712 12 48.20 -06 47 09.8                VEJ033M21
     K24J00H KC2024 05 02.78021412 12 33.22 -06 54 14.3          19.5 GVEJ033M21
     K24J00H KC2024 05 02.84881912 11 56.43 -07 17 12.3          19.6 GXEJ033I93
     K24J00H KC2024 05 02.85400112 11 53.51 -07 18 36.0          19.1 GXEJ033I93
     K24J00H KC2024 05 02.85902212 11 50.68 -07 19 57.1          19.1 GXEJ033I93
     K24J00H KB2024 05 02.93973112 11 15.737-07 37 33.92         19.9 VZEJ033Y05
     K24J00H KB2024 05 02.94501712 11 12.686-07 38 59.39         20.6 VZEJ033Y05
     K24J00H KB2024 05 02.95021512 11 09.696-07 40 23.12         20.9 VZEJ033Y05
     K24J00H !C2024 05 03.24592 12 08 40.23 -09 01 26.4          19.5 GVEJ033673
     K24J00H !C2024 05 03.24694 12 08 39.64 -09 01 42.2          19.4 GVEJ033673

Observer details:
673 Table Mountain Observatory, Wrightwood.  Observer J. Pittichova.  1.0-m
    f/15 reflector + CCD.
858 Tebbutt Observatory, Edgewood.  Observer F. B. Zoltowski.  0.51-m f/8.1
    Schmidt-Cassegrain + CCD.
G96 Mt. Lemmon Survey.  Observer K. W. Wierzchos.  Measurers B. Gray, D.
    Rankin, F. C. Shelly.  1.5-m reflector + 10K CCD.
H21 Astronomical Research Observatory, Westfield.  Observer R. Holmes.
    Measurers T. Linder, R. Holmes, L. Horn.  0.81-m f/4.0 astrograph + CCD.
I52 Steward Observatory, Mt. Lemmon Station.  Observers V. F. Carvajal, G. J.
    Leonard.  Measurers T. Beuden, V. F. Carvajal, D. Fay, J. B. Fazekas, D.
    C. Fuls, A. R. Gibbs, A. D. Grauer, H. Groeller, J. K. Hogan, R. A.
    Kowalski, S. M. Larson, G. J. Leonard, D. Rankin, R. L. Seaman, F. C.
    Shelly, K. W. Wierzchos.  1.0-m prime focus + CCD.
I93 St Pardon de Conques.  Observer F. Losse.  0.40-m f/3.7 reflector + CCD.
K74 Muensterschwarzach Observatory, Schwarzach.  Observer C. Gerhard.  0.30-m
    f/3.75 reflector + CMO.
M21 Schiaparelli Southern Observatory, Hakos.  Observers A. Aletti, F.
    Bellini, L. Buzzi, G. Galli.  Measurer L. Buzzi.  0.36-m f/8.4 reflector +
    CCD.
W16 Pleasant Groves Observatory.  Observer M. Holbrook.  0.36-m f/2.2
    reflector + CCD.
Y05 SONEAR Wykrota-CEAMIG, Serra da Piedade.  Observers C. Jacques, A.
    Caetano, E. Pimentel.  Measurer C. Jacques.  0.45-m f/2.9 reflector + CMO.

Orbital elements:
2024 JH                                                  Earth MOID = 0.0261 AU
Epoch 2024 Mar. 31.0 TT = JDT 2460400.5                 Veres                   
M  88.37292              (2000.0)            P               Q                  
n   1.02864617     Peri.   48.77083     +0.02269961     -0.99103294             
a   0.9719085      Node    40.50968     +0.84587536     -0.05116704             
e   0.1107413      Incl.   11.69547     +0.53289737     +0.12343277             
P   0.96           H   25.63          G   0.15           U   5                  
Residuals in seconds of arc
240421 G96  0.5-  0.1+    240501 K74  0.1-  0.2+    240502 I52  0.1+  0.0
240421 G96  0.5+  0.1-    240501 K74  0.4-  0.4-    240502 M21  0.5+  0.5+
240501 W16  0.2-  0.2+    240502 H21  0.0   0.1-    240502 M21  0.7-  0.2+
240501 W16  0.1-  1.0-    240502 H21  0.1-  0.1-    240502 I93  0.0   0.4-
240501 W16  0.4+  0.3+    240502 H21  0.0   0.1-    240502 I93  0.1-  0.1+
240501 W16  0.2+  0.1-    240502 H21  0.0   0.0     240502 I93  0.2-  0.5+
240501 W16  0.2-  0.1-    240502 858  0.2-  0.1-    240502 Y05  0.5+  0.2+
240501 W16  0.3+  0.2+    240502 858  0.1-  0.1-    240502 Y05  0.2+  0.0
240501 I52  0.2-  0.3+    240502 858  0.2-  0.0     240502 Y05  0.1+  0.0
240501 I52  0.1+  0.0     240502 I52  0.2-  0.4+    240503 673  0.2+  0.1-
240501 I52  0.4-  0.3+    240502 I52  0.2+  0.2-    240503 673  0.2-  0.2-
240501 I52  0.0   0.1-    240502 I52  0.1+  0.0

Ephemeris:
2024 JH                  a,e,i = 0.97, 0.11, 12                  q = 0.8643
Date    TT    R. A. (2000) Decl.     Delta      r    Elong.  Phase     V
2024 04 03    19 43 59.1 +62 49 50   0.09339 0.9864    79.1    95.6    23.9
...
2024 04 18    16 30 47.9 +61 43 38   0.04609 1.0135   100.5    76.9    21.7
...
2024 04 26    13 35 49.6 +33 21 22   0.03004 1.0267   132.3    46.5    19.8
...
2024 05 02    12 19 10.6 -03 12 16   0.03433 1.0357   143.9    35.0    19.8
2024 05 03    12 10 39.9 -07 54 18   0.03644 1.0372   142.4    36.3    20.0
2024 05 04    12 03 03.7 -12 03 21   0.03882 1.0386   140.6    38.0    20.2
...
2024 05 10    11 31 42.8 -28 10 46   0.05669 1.0467   129.4    48.2    21.3
...
2024 05 18    11 12 46.6 -37 45 37   0.08457 1.0562   119.9    56.1    22.4
...
2024 06 02    11 07 25.7 -45 09 55   0.1386  1.0699   110.2    62.9    23.7

M. P. C. Staff               (C) Copyright 2024 MPC           M.P.E.C. 2024-J33





More information about the Iaude mailing list